Voltar ao catálogo

CZ-6A DEB

AtivoSSO
NORAD 55187·DEBRIS·🇨🇳 China

Lançado Nov 11, 2022 de Taiyuan Satellite Launch Center

Loading…

Próximas Passagens (próximas 24 horas)

TLE

AtualizadoSource: Space-Track

Época: Sep 13, 2026, 13:49 UTC

1 55187U 22151VC  26256.57631718  .00004486  00000-0  15756-2 0  9994
2 55187  98.7988 280.6649 0063568  65.6862 295.0943 14.34329148196280

Acompanhe CZ-6A DEB em tempo real com AllMySat

Download on the App Store